Find Starlink 3517

NORAD ID: 51735 Int'l Des: 2022-016 Owner: SPXS Country: US Constellation: starlink operational
LEOCIRCULAR

現在のビュー

3D地球を読み込み中...

About Starlink 3517

Starlink 3517 (NORAD 51735) is a starlink constellation satellite (v1.5) launched Feb 21, 2022 by SPXS of US. It operates in LEO, CIRCULAR orbit with a mass of 297.00 kg.

Starlink 3517について

説明を読み込み中...

次回通過

Passes for default location (London). Set your location on the main map for personalized predictions.

高度履歴

Loading altitude history...

軌道要素

1 51735U 22016X 26170.40423899 -.00001099 00000-0 -50951-4 0 9992
2 51735 53.1591 222.3974 0001061 82.9327 277.1785 15.08837201238921
Epoch: Jun 19, 2026 • Age: 16 hours

現在のステータス

高度 549.7 km
速度 7.59 km/s
衛星直下点 -30.95°S, 96.72°W
打ち上げ日 Feb 21, 2022
運用期間 4.3 years
タイプ internet

技術仕様

分類 Payload
質量 297.00 kg
乾燥質量 275.00 kg
総質量 297.00 kg
長さ 0.20 m
直径 2.80 m
スパン 9.00 m
形状 Box + pan
製造者 SPXS
バスタイプ Starlink
フェーズステータス In Orbit
所有者/国 SPXS/US

Most Searched